Weather History for Laurens, SC

Change the Weather History Date:

Thursday, November 1, 2012

  Actual Average (KGSP) Record (KGSP)
Temperature  
Mean Temperature 48 °F 57 °F  
Max Temperature 62 °F 68 °F 86 °F (1961)
Min Temperature 33 °F 46 °F 25 °F (1930)
Degree Days  
Heating Degree Days 18 9  
Month to date heating degree days 9  
Since 1 July heating degree days 179  
Cooling Degree Days 0 0  
Month to date cooling degree days 0  
Year to date cooling degree days 1710  
Moisture  
Dew Point 25 °F    
Average Humidity 43    
Maximum Humidity 87    
Minimum Humidity 22    
Precipitation  
Precipitation 0.00 in 0.11 in 1.65 in (1985)
Month to date precipitation 0.11  
Year to date precipitation 39.49  
Snow  
Snow 0.00 in 0.00 in 0.00 in ()
Month to date snowfall 0.0  
Since 1 July snowfall 0.0  
Since 1 September snowfall 0.0  
Snow Depth -    
Sea Level Pressure  
Sea Level Pressure 29.87 in    
Wind  
Wind Speed 5 mph (West)    
Max Wind Speed 14 mph    
Max Gust Speed 18 mph    
Visibility 10 miles    
Events      
T = Trace of Precipitation, MM = Missing Value Source: NWS Daily Summary

Daily Weather History Graph

Daily Weather History Graph

Search for Another Location

Airport:

Trip Planner

Search our weather history database for the weather conditions in past years. The results will help you decide how hot, cold, wet, or windy it might be!

Date:

Astronomy

Nov. 01, 2012 Rise Set
Actual Time 7:48 AM EDT 6:33 PM EDT
Civil Twilight 7:22 AM EDT 6:59 PM EDT
Nautical Twilight 6:52 AM EDT 7:29 PM EDT
Astronomical Twilight 6:23 AM EDT 7:58 PM EDT
Moon 8:35 PM EDT (11/1) 10:14 AM EDT (11/1)
Length of Visible Light 11h 37m
Length of Day
10h 45m
Waning Gibbous, 93% of the Moon is Illuminated
Nov 1
Waning Gibbous
Nov 6
Last Quarter
Nov 13
New
Nov 20
First Quarter
Nov 28
Full

Hourly Weather History & Observations

Time (EDT) Temp. Windchill Dew Point Humidity Pressure Visibility Wind Dir Wind Speed Gust Speed Precip Events Conditions
12:15 AM 46.4 °F 42.9 °F 23.0 °F 40% 29.83 in 10.0 mi West 6.9 mph - N/A   Clear
12:35 AM 46.4 °F 44.3 °F 23.0 °F 40% 29.83 in 10.0 mi WNW 4.6 mph - N/A   Clear
1:15 AM 46.4 °F 45.2 °F 23.0 °F 40% 29.83 in 10.0 mi WNW 3.5 mph - N/A   Clear
1:35 AM 46.4 °F 41.9 °F 23.0 °F 40% 29.83 in 10.0 mi West 9.2 mph - N/A   Clear
1:55 AM 46.4 °F 43.5 °F 23.0 °F 40% 29.83 in 10.0 mi WNW 5.8 mph - N/A   Clear
2:15 AM 46.4 °F 45.2 °F 23.0 °F 40% 29.83 in 10.0 mi West 3.5 mph - N/A   Clear
2:35 AM 46.4 °F 43.5 °F 23.0 °F 40% 29.83 in 10.0 mi West 5.8 mph - N/A   Clear
3:15 AM 44.6 °F 42.2 °F 24.8 °F 46% 29.84 in 10.0 mi WSW 4.6 mph - N/A   Clear
3:35 AM 42.8 °F - 26.6 °F 53% 29.83 in 10.0 mi Calm Calm - N/A   Clear
3:55 AM 41.0 °F 38.0 °F 26.6 °F 57% 29.83 in 10.0 mi West 4.6 mph - N/A   Clear
4:15 AM 41.0 °F 37.1 °F 24.8 °F 53% 29.83 in 10.0 mi WNW 5.8 mph - N/A   Clear
4:35 AM 39.2 °F 35.0 °F 28.4 °F 65% 29.83 in 10.0 mi WSW 5.8 mph - N/A   Clear
4:55 AM 37.4 °F - 26.6 °F 65% 29.83 in 10.0 mi Calm Calm - N/A   Clear
5:35 AM 35.6 °F 32.8 °F 30.2 °F 81% 29.84 in 10.0 mi SSW 3.5 mph - N/A   Clear
5:55 AM 33.8 °F 27.7 °F 28.4 °F 81% 29.84 in 10.0 mi West 6.9 mph - N/A   Clear
6:15 AM 33.8 °F 30.8 °F 30.2 °F 87% 29.85 in 10.0 mi West 3.5 mph - N/A   Clear
6:35 AM 33.8 °F - 28.4 °F 81% 29.85 in 10.0 mi Calm Calm - N/A   Clear
6:55 AM 33.8 °F - 28.4 °F 81% 29.86 in 10.0 mi Calm Calm - N/A   Clear
7:15 AM 33.8 °F - 28.4 °F 81% 29.87 in 10.0 mi Calm Calm - N/A   Clear
7:35 AM 33.8 °F - 28.4 °F 81% 29.87 in 10.0 mi Calm Calm - N/A   Clear
7:55 AM 33.8 °F - 28.4 °F 81% 29.88 in 10.0 mi Calm Calm - N/A   Clear
8:15 AM 33.8 °F - 28.4 °F 81% 29.88 in 10.0 mi Calm Calm - N/A   Clear
8:35 AM 33.8 °F 30.8 °F 28.4 °F 81% 29.88 in 10.0 mi WNW 3.5 mph - N/A   Clear
8:55 AM 39.2 °F 35.9 °F 28.4 °F 65% 29.89 in 10.0 mi West 4.6 mph - N/A   Clear
9:15 AM 44.6 °F 42.2 °F 28.4 °F 53% 29.90 in 10.0 mi West 4.6 mph - N/A   Clear
9:35 AM 46.4 °F 42.4 °F 26.6 °F 46% 29.90 in 10.0 mi West 8.1 mph - N/A   Clear
9:55 AM 48.2 °F - 26.6 °F 43% 29.91 in 10.0 mi West 6.9 mph - N/A   Clear
10:15 AM 50.0 °F - 28.4 °F 43% 29.91 in 10.0 mi NW 9.2 mph - N/A   Clear
10:35 AM 50.0 °F - 26.6 °F 40% 29.91 in 10.0 mi NW 5.8 mph - N/A   Clear
11:15 AM 51.8 °F - 26.6 °F 38% 29.91 in 10.0 mi WNW 8.1 mph - N/A   Clear
11:35 AM 53.6 °F - 24.8 °F 33% 29.91 in 10.0 mi West 5.8 mph - N/A   Clear
12:15 PM 55.4 °F - 24.8 °F 31% 29.91 in 10.0 mi WNW 6.9 mph - N/A   Clear
12:35 PM 55.4 °F - 26.6 °F 33% 29.90 in 10.0 mi West 4.6 mph - N/A   Clear
12:55 PM 55.4 °F - 26.6 °F 33% 29.89 in 10.0 mi West 8.1 mph - N/A   Clear
1:15 PM 57.2 °F - 26.6 °F 31% 29.88 in 10.0 mi WSW 8.1 mph 17.3 mph N/A   Clear
1:35 PM 59.0 °F - 26.6 °F 29% 29.87 in 10.0 mi West 8.1 mph - N/A   Clear
1:55 PM 59.0 °F - 26.6 °F 29% 29.86 in 10.0 mi WNW 13.8 mph - N/A   Clear
2:15 PM 59.0 °F - 26.6 °F 29% 29.85 in 10.0 mi WSW 11.5 mph 18.4 mph N/A   Clear
2:35 PM 59.0 °F - 24.8 °F 27% 29.85 in 10.0 mi WNW 9.2 mph 17.3 mph N/A   Clear
2:55 PM 60.8 °F - 26.6 °F 27% 29.85 in 10.0 mi NW 13.8 mph 17.3 mph N/A   Clear
3:15 PM 60.8 °F - 26.6 °F 27% 29.85 in 10.0 mi West 11.5 mph 17.3 mph N/A   Clear
3:35 PM 60.8 °F - 24.8 °F 25% 29.85 in 10.0 mi WNW 9.2 mph 18.4 mph N/A   Clear
3:55 PM 60.8 °F - 24.8 °F 25% 29.84 in 10.0 mi WSW 5.8 mph - N/A   Clear
4:15 PM 62.6 °F - 23.0 °F 22% 29.84 in 10.0 mi West 11.5 mph 16.1 mph N/A   Clear
4:35 PM 62.6 °F - 23.0 °F 22% 29.83 in 10.0 mi West 9.2 mph 17.3 mph N/A   Clear
4:55 PM 62.6 °F - 23.0 °F 22% 29.83 in 10.0 mi WSW 10.4 mph - N/A   Clear
5:35 PM 62.6 °F - 23.0 °F 22% 29.83 in 10.0 mi WSW 5.8 mph - N/A   Clear
5:55 PM 60.8 °F - 23.0 °F 23% 29.84 in 10.0 mi WSW 3.5 mph - N/A   Clear
6:15 PM 60.8 °F - 23.0 °F 23% 29.84 in 10.0 mi WSW 3.5 mph - N/A   Clear
6:35 PM 59.0 °F - 23.0 °F 25% 29.85 in 10.0 mi WSW 3.5 mph - N/A   Clear
7:15 PM 55.4 °F - 21.2 °F 26% 29.87 in 10.0 mi WSW 4.6 mph - N/A   Clear
7:35 PM 55.4 °F - 21.2 °F 26% 29.88 in 10.0 mi West 6.9 mph - N/A   Clear
7:55 PM 55.4 °F - 21.2 °F 26% 29.89 in 10.0 mi West 5.8 mph - N/A   Clear
8:15 PM 53.6 °F - 21.2 °F 28% 29.89 in 10.0 mi WSW 3.5 mph - N/A   Clear
8:35 PM 51.8 °F - 21.2 °F 30% 29.90 in 10.0 mi West 6.9 mph - N/A   Clear
8:55 PM 51.8 °F - 23.0 °F 33% 29.90 in 10.0 mi West 8.1 mph - N/A   Clear
9:15 PM 51.8 °F - 23.0 °F 33% 29.91 in 10.0 mi WNW 6.9 mph - N/A   Clear
9:35 PM 50.0 °F - 23.0 °F 35% 29.92 in 10.0 mi WNW 6.9 mph - N/A   Clear
9:55 PM 50.0 °F - 23.0 °F 35% 29.93 in 10.0 mi WNW 6.9 mph - N/A   Clear
10:15 PM 50.0 °F - 21.2 °F 32% 29.93 in 10.0 mi West 5.8 mph - N/A   Clear
10:35 PM 50.0 °F - 23.0 °F 35% 29.93 in 10.0 mi West 6.9 mph - N/A   Clear
10:55 PM 48.2 °F - 23.0 °F 37% 29.94 in 10.0 mi West 3.5 mph - N/A   Clear
11:15 PM 44.6 °F 42.2 °F 28.4 °F 53% 29.93 in 10.0 mi WSW 4.6 mph - N/A   Clear
11:35 PM 46.4 °F 44.3 °F 23.0 °F 40% 29.94 in 10.0 mi West 4.6 mph - N/A   Clear
11:55 PM 46.4 °F 45.2 °F 23.0 °F 40% 29.94 in 10.0 mi WSW 3.5 mph - N/A   Clear